﻿測定場所 (Monitoring sites),日付 (Measurement date),時間 (Measurement time),線量率 最大値 (max) μGy/h,線量率 最小値 (min) μGy/h,線量率 平均値 (average) μGy/h,
小平 (Kodaira),2023-03-26,23:01～24:00,0.0327,0.0277,0.0300,
小平 (Kodaira),2023-03-26,22:01～23:00,0.0313,0.0280,0.0299,
小平 (Kodaira),2023-03-26,21:01～22:00,0.0347,0.0296,0.0320,
小平 (Kodaira),2023-03-26,20:01～21:00,0.0355,0.0281,0.0308,
小平 (Kodaira),2023-03-26,19:01～20:00,0.0312,0.0271,0.0292,
小平 (Kodaira),2023-03-26,18:01～19:00,0.0321,0.0279,0.0299,
小平 (Kodaira),2023-03-26,17:01～18:00,0.0343,0.0288,0.0322,
小平 (Kodaira),2023-03-26,16:01～17:00,0.0416,0.0327,0.0368,
小平 (Kodaira),2023-03-26,15:01～16:00,0.0477,0.0367,0.0422,
小平 (Kodaira),2023-03-26,14:01～15:00,0.0492,0.0413,0.0443,
小平 (Kodaira),2023-03-26,13:01～14:00,0.0475,0.0385,0.0431,
小平 (Kodaira),2023-03-26,12:01～13:00,0.0446,0.0383,0.0415,
小平 (Kodaira),2023-03-26,11:01～12:00,0.0438,0.0360,0.0402,
小平 (Kodaira),2023-03-26,10:01～11:00,0.0395,0.0345,0.0368,
小平 (Kodaira),2023-03-26,09:01～10:00,0.0383,0.0338,0.0362,
小平 (Kodaira),2023-03-26,08:01～09:00,0.0406,0.0338,0.0369,
小平 (Kodaira),2023-03-26,07:01～08:00,0.0376,0.0326,0.0354,
小平 (Kodaira),2023-03-26,06:01～07:00,0.0384,0.0324,0.0352,
小平 (Kodaira),2023-03-26,05:01～06:00,0.0363,0.0293,0.0329,
小平 (Kodaira),2023-03-26,04:01～05:00,0.0352,0.0311,0.0333,
小平 (Kodaira),2023-03-26,03:01～04:00,0.0346,0.0296,0.0323,
小平 (Kodaira),2023-03-26,02:01～03:00,0.0364,0.0310,0.0339,
小平 (Kodaira),2023-03-26,01:01～02:00,0.0348,0.0306,0.0328,
小平 (Kodaira),2023-03-26,00:01～01:00,0.0355,0.0314,0.0332,
小平 (Kodaira),2023-03-25,23:01～24:00,0.0363,0.0313,0.0336,
小平 (Kodaira),2023-03-25,22:01～23:00,0.0328,0.0279,0.0307,
小平 (Kodaira),2023-03-25,21:01～22:00,0.0339,0.0276,0.0300,
小平 (Kodaira),2023-03-25,20:01～21:00,0.0314,0.0258,0.0293,
小平 (Kodaira),2023-03-25,19:01～20:00,0.0316,0.0270,0.0292,
小平 (Kodaira),2023-03-25,18:01～19:00,0.0334,0.0288,0.0305,
小平 (Kodaira),2023-03-25,17:01～18:00,0.0320,0.0283,0.0305,
小平 (Kodaira),2023-03-25,16:01～17:00,0.0313,0.0273,0.0290,
小平 (Kodaira),2023-03-25,15:01～16:00,0.0332,0.0277,0.0303,
小平 (Kodaira),2023-03-25,14:01～15:00,0.0361,0.0299,0.0327,
小平 (Kodaira),2023-03-25,13:01～14:00,0.0408,0.0332,0.0362,
小平 (Kodaira),2023-03-25,12:01～13:00,0.0481,0.0389,0.0426,
小平 (Kodaira),2023-03-25,11:01～12:00,0.0473,0.0371,0.0419,
小平 (Kodaira),2023-03-25,10:01～11:00,0.0464,0.0398,0.0437,
小平 (Kodaira),2023-03-25,09:01～10:00,0.0489,0.0416,0.0443,
小平 (Kodaira),2023-03-25,08:01～09:00,0.0472,0.0408,0.0438,
小平 (Kodaira),2023-03-25,07:01～08:00,0.0453,0.0376,0.0419,
小平 (Kodaira),2023-03-25,06:01～07:00,0.0471,0.0391,0.0429,
小平 (Kodaira),2023-03-25,05:01～06:00,0.0482,0.0415,0.0451,
小平 (Kodaira),2023-03-25,04:01～05:00,0.0502,0.0394,0.0441,
小平 (Kodaira),2023-03-25,03:01～04:00,0.0485,0.0397,0.0445,
小平 (Kodaira),2023-03-25,02:01～03:00,0.0430,0.0348,0.0382,
小平 (Kodaira),2023-03-25,01:01～02:00,0.0472,0.0363,0.0423,
小平 (Kodaira),2023-03-25,00:01～01:00,0.0508,0.0413,0.0466,
小平 (Kodaira),2023-03-24,23:01～24:00,0.0546,0.0408,0.0470,
小平 (Kodaira),2023-03-24,22:01～23:00,0.0561,0.0437,0.0489,
小平 (Kodaira),2023-03-24,21:01～22:00,0.0481,0.0374,0.0432,
小平 (Kodaira),2023-03-24,20:01～21:00,0.0410,0.0258,0.0328,
小平 (Kodaira),2023-03-24,19:01～20:00,0.0308,0.0274,0.0291,
小平 (Kodaira),2023-03-24,18:01～19:00,0.0329,0.0271,0.0304,
小平 (Kodaira),2023-03-24,17:01～18:00,0.0403,0.0299,0.0349,
小平 (Kodaira),2023-03-24,16:01～17:00,0.0483,0.0377,0.0427,
小平 (Kodaira),2023-03-24,15:01～16:00,0.0538,0.0427,0.0487,
小平 (Kodaira),2023-03-24,14:01～15:00,0.0457,0.0277,0.0332,
小平 (Kodaira),2023-03-24,13:01～14:00,0.0315,0.0271,0.0292,
小平 (Kodaira),2023-03-24,12:01～13:00,0.0312,0.0275,0.0293,
小平 (Kodaira),2023-03-24,11:01～12:00,0.0314,0.0275,0.0293,
小平 (Kodaira),2023-03-24,10:01～11:00,0.0321,0.0265,0.0294,
小平 (Kodaira),2023-03-24,09:01～10:00,0.0322,0.0278,0.0301,
小平 (Kodaira),2023-03-24,08:01～09:00,0.0335,0.0285,0.0310,
小平 (Kodaira),2023-03-24,07:01～08:00,0.0327,0.0284,0.0301,
小平 (Kodaira),2023-03-24,06:01～07:00,0.0319,0.0283,0.0301,
小平 (Kodaira),2023-03-24,05:01～06:00,0.0322,0.0288,0.0300,
小平 (Kodaira),2023-03-24,04:01～05:00,0.0319,0.0279,0.0303,
小平 (Kodaira),2023-03-24,03:01～04:00,0.0325,0.0272,0.0298,
小平 (Kodaira),2023-03-24,02:01～03:00,0.0315,0.0271,0.0293,
小平 (Kodaira),2023-03-24,01:01～02:00,0.0314,0.0273,0.0295,
小平 (Kodaira),2023-03-24,00:01～01:00,0.0313,0.0273,0.0297,
小平 (Kodaira),2023-03-23,23:01～24:00,0.0328,0.0282,0.0307,
小平 (Kodaira),2023-03-23,22:01～23:00,0.0344,0.0292,0.0317,
小平 (Kodaira),2023-03-23,21:01～22:00,0.0344,0.0277,0.0312,
小平 (Kodaira),2023-03-23,20:01～21:00,0.0361,0.0293,0.0331,
小平 (Kodaira),2023-03-23,19:01～20:00,0.0399,0.0338,0.0360,
小平 (Kodaira),2023-03-23,18:01～19:00,0.0372,0.0334,0.0356,
小平 (Kodaira),2023-03-23,17:01～18:00,0.0371,0.0295,0.0338,
小平 (Kodaira),2023-03-23,16:01～17:00,0.0328,0.0278,0.0304,
小平 (Kodaira),2023-03-23,15:01～16:00,0.0330,0.0288,0.0310,
小平 (Kodaira),2023-03-23,14:01～15:00,0.0374,0.0308,0.0339,
小平 (Kodaira),2023-03-23,13:01～14:00,0.0383,0.0330,0.0359,
小平 (Kodaira),2023-03-23,12:01～13:00,0.0401,0.0347,0.0365,
小平 (Kodaira),2023-03-23,11:01～12:00,0.0396,0.0341,0.0362,
小平 (Kodaira),2023-03-23,10:01～11:00,0.0383,0.0329,0.0353,
小平 (Kodaira),2023-03-23,09:01～10:00,0.0370,0.0303,0.0343,
小平 (Kodaira),2023-03-23,08:01～09:00,0.0327,0.0275,0.0300,
小平 (Kodaira),2023-03-23,07:01～08:00,0.0318,0.0283,0.0297,
小平 (Kodaira),2023-03-23,06:01～07:00,0.0318,0.0275,0.0299,
小平 (Kodaira),2023-03-23,05:01～06:00,0.0316,0.0278,0.0299,
小平 (Kodaira),2023-03-23,04:01～05:00,0.0316,0.0282,0.0299,
小平 (Kodaira),2023-03-23,03:01～04:00,0.0317,0.0282,0.0298,
小平 (Kodaira),2023-03-23,02:01～03:00,0.0323,0.0274,0.0294,
小平 (Kodaira),2023-03-23,01:01～02:00,0.0319,0.0269,0.0290,
小平 (Kodaira),2023-03-23,00:01～01:00,0.0312,0.0269,0.0289,
小平 (Kodaira),2023-03-22,23:01～24:00,0.0318,0.0269,0.0288,
小平 (Kodaira),2023-03-22,22:01～23:00,0.0303,0.0272,0.0285,
小平 (Kodaira),2023-03-22,21:01～22:00,0.0302,0.0264,0.0285,
小平 (Kodaira),2023-03-22,20:01～21:00,0.0310,0.0271,0.0288,
小平 (Kodaira),2023-03-22,19:01～20:00,0.0312,0.0264,0.0288,
小平 (Kodaira),2023-03-22,18:01～19:00,0.0301,0.0268,0.0286,
小平 (Kodaira),2023-03-22,17:01～18:00,0.0307,0.0271,0.0287,
小平 (Kodaira),2023-03-22,16:01～17:00,0.0310,0.0273,0.0292,
小平 (Kodaira),2023-03-22,15:01～16:00,0.0313,0.0270,0.0289,
小平 (Kodaira),2023-03-22,14:01～15:00,0.0307,0.0270,0.0291,
小平 (Kodaira),2023-03-22,13:01～14:00,0.0317,0.0274,0.0290,
小平 (Kodaira),2023-03-22,12:01～13:00,0.0307,0.0277,0.0292,
小平 (Kodaira),2023-03-22,11:01～12:00,0.0314,0.0274,0.0292,
小平 (Kodaira),2023-03-22,10:01～11:00,0.0316,0.0275,0.0296,
小平 (Kodaira),2023-03-22,09:01～10:00,0.0322,0.0281,0.0302,
小平 (Kodaira),2023-03-22,08:01～09:00,0.0329,0.0287,0.0304,
小平 (Kodaira),2023-03-22,07:01～08:00,0.0330,0.0290,0.0310,
小平 (Kodaira),2023-03-22,06:01～07:00,0.0333,0.0289,0.0307,
小平 (Kodaira),2023-03-22,05:01～06:00,0.0326,0.0283,0.0303,
小平 (Kodaira),2023-03-22,04:01～05:00,0.0323,0.0286,0.0302,
小平 (Kodaira),2023-03-22,03:01～04:00,0.0320,0.0292,0.0303,
小平 (Kodaira),2023-03-22,02:01～03:00,0.0326,0.0282,0.0304,
小平 (Kodaira),2023-03-22,01:01～02:00,0.0318,0.0282,0.0300,
小平 (Kodaira),2023-03-22,00:01～01:00,0.0318,0.0286,0.0300,
小平 (Kodaira),2023-03-21,23:01～24:00,0.0319,0.0276,0.0297,
小平 (Kodaira),2023-03-21,22:01～23:00,0.0311,0.0273,0.0292,
小平 (Kodaira),2023-03-21,21:01～22:00,0.0313,0.0274,0.0291,
小平 (Kodaira),2023-03-21,20:01～21:00,0.0307,0.0267,0.0289,
小平 (Kodaira),2023-03-21,19:01～20:00,0.0311,0.0274,0.0289,
小平 (Kodaira),2023-03-21,18:01～19:00,0.0313,0.0260,0.0285,
小平 (Kodaira),2023-03-21,17:01～18:00,0.0304,0.0270,0.0286,
小平 (Kodaira),2023-03-21,16:01～17:00,0.0310,0.0267,0.0287,
小平 (Kodaira),2023-03-21,15:01～16:00,0.0304,0.0260,0.0285,
小平 (Kodaira),2023-03-21,14:01～15:00,0.0317,0.0269,0.0289,
小平 (Kodaira),2023-03-21,13:01～14:00,0.0309,0.0271,0.0291,
小平 (Kodaira),2023-03-21,12:01～13:00,0.0319,0.0273,0.0292,
小平 (Kodaira),2023-03-21,11:01～12:00,0.0311,0.0274,0.0294,
小平 (Kodaira),2023-03-21,10:01～11:00,0.0326,0.0282,0.0301,
小平 (Kodaira),2023-03-21,09:01～10:00,0.0319,0.0273,0.0301,
小平 (Kodaira),2023-03-21,08:01～09:00,0.0327,0.0284,0.0305,
小平 (Kodaira),2023-03-21,07:01～08:00,0.0323,0.0287,0.0308,
小平 (Kodaira),2023-03-21,06:01～07:00,0.0321,0.0283,0.0306,
小平 (Kodaira),2023-03-21,05:01～06:00,0.0323,0.0278,0.0306,
小平 (Kodaira),2023-03-21,04:01～05:00,0.0334,0.0282,0.0301,
小平 (Kodaira),2023-03-21,03:01～04:00,0.0317,0.0283,0.0299,
小平 (Kodaira),2023-03-21,02:01～03:00,0.0315,0.0278,0.0299,
小平 (Kodaira),2023-03-21,01:01～02:00,0.0312,0.0267,0.0293,
小平 (Kodaira),2023-03-21,00:01～01:00,0.0307,0.0271,0.0290,
小平 (Kodaira),2023-03-20,23:01～24:00,0.0308,0.0268,0.0288,
小平 (Kodaira),2023-03-20,22:01～23:00,0.0307,0.0268,0.0287,
小平 (Kodaira),2023-03-20,21:01～22:00,0.0308,0.0271,0.0290,
小平 (Kodaira),2023-03-20,20:01～21:00,0.0307,0.0269,0.0288,
小平 (Kodaira),2023-03-20,19:01～20:00,0.0317,0.0272,0.0288,
小平 (Kodaira),2023-03-20,18:01～19:00,0.0303,0.0260,0.0283,
小平 (Kodaira),2023-03-20,17:01～18:00,0.0314,0.0270,0.0288,
小平 (Kodaira),2023-03-20,16:01～17:00,0.0307,0.0271,0.0287,
小平 (Kodaira),2023-03-20,15:01～16:00,0.0314,0.0259,0.0291,
小平 (Kodaira),2023-03-20,14:01～15:00,0.0306,0.0269,0.0290,
小平 (Kodaira),2023-03-20,13:01～14:00,0.0317,0.0269,0.0289,
小平 (Kodaira),2023-03-20,12:01～13:00,0.0310,0.0271,0.0289,
小平 (Kodaira),2023-03-20,11:01～12:00,0.0314,0.0271,0.0293,
小平 (Kodaira),2023-03-20,10:01～11:00,0.0321,0.0284,0.0301,
小平 (Kodaira),2023-03-20,09:01～10:00,0.0318,0.0282,0.0300,
小平 (Kodaira),2023-03-20,08:01～09:00,0.0324,0.0285,0.0301,
小平 (Kodaira),2023-03-20,07:01～08:00,0.0328,0.0283,0.0307,
小平 (Kodaira),2023-03-20,06:01～07:00,0.0328,0.0287,0.0306,
小平 (Kodaira),2023-03-20,05:01～06:00,0.0324,0.0282,0.0303,
小平 (Kodaira),2023-03-20,04:01～05:00,0.0324,0.0271,0.0296,
小平 (Kodaira),2023-03-20,03:01～04:00,0.0309,0.0266,0.0290,
小平 (Kodaira),2023-03-20,02:01～03:00,0.0309,0.0266,0.0290,
小平 (Kodaira),2023-03-20,01:01～02:00,0.0325,0.0272,0.0296,
小平 (Kodaira),2023-03-20,00:01～01:00,0.0316,0.0277,0.0298,
